Weather Roundup
Issued by NWS Corpus Christi, TX

Home | Current Version | Previous Version | Text Only | Print | Product List | Glossary On
Versions: 1 2 3 4 5 6 7 8 9 10 11 12 13 14 15 16 17 18 19 20 21 22 23 24 25 26 27 28 29 30 31 32 33 34 35 36 37 38 39 40 41 42 43 44 45 46 47 48 49 50
000
ASUS44 KCRP 180210
HRRCRP

SOUTH TEXAS REGIONAL WEATHER ROUNDUP
NATIONAL WEATHER SERVICE CORPUS CHRISTI TX
900 PM CDT WED SEP 17 2014


TXZ229>244-180300-
...CORPUS CHRISTI AREA OBSERVATIONS...

CITY           SKY/WX    TMP DP  RH WIND       PRES   REMARKS
CORPUS CHRISTI MOCLDY    82  76  81 SE12      29.87R
NAS CORPUS CHR MOCLDY    83  79  88 SE15      29.87R HX  94
ROCKPORT       CLOUDY    83  76  79 SE12      29.87R HX  91
KINGSVILLE NAS MOCLDY    83  79  88 SE9       29.87R HX  94
ALICE          CLEAR     82  76  81 SE12      29.86R
FALFURRIAS     PTCLDY   N/A N/A N/A SE6       29.86R
$$

...VICTORIA AREA OBSERVATIONS...

CITY           SKY/WX    TMP DP  RH WIND       PRES   REMARKS
VICTORIA       MOCLDY    81  78  91 CALM      29.89R
BEEVILLE       FAIR      82  76  82 SE10      29.87R
PLEASANTON     MOCLDY    83  72  69 E5        29.86R
SAN ANTONIO    CLOUDY    83  74  74 SE5       29.88R
$$

...LAREDO AREA OBSERVATIONS...

CITY           SKY/WX    TMP DP  RH WIND       PRES   REMARKS
LAREDO         PTCLDY    87  71  58 SE12      29.87R HX  92
COTULLA        PTCLDY    87  68  52 SE7       29.84R HX  90
DEL RIO        CLEAR     86  71  60 E6        29.84R HX  91
MCALLEN        PTCLDY    82  76  81 SE8       29.86R
HEBBRONVILLE     N/A     82  72  71 E5        29.88R
$$

...OTHER TEXAS OBSERVATIONS...

CITY           SKY/WX    TMP DP  RH WIND       PRES   REMARKS
BROWNSVILLE    CLEAR     81  77  88 SE7       29.87R
HOUSTON        PTCLDY    76  74  93 CALM      29.91R
COL. STATION   MOCLDY    77  72  84 SE8       29.90R
AUSTIN         MOCLDY    82  73  74 SE8       29.88R
WACO           CLOUDY    78  71  79 S15       29.90R
FORT WORTH     LGT RAIN  79  71  76 SE7       29.88S
WICHITA FALLS  CLOUDY    77  71  82 SE7       29.88R
LUBBOCK        CLOUDY    68  66  93 SE7       30.00R
EL PASO        TSTM      77  66  68 N16       29.93S
$$

...MARINE OBSERVATIONS...

STATION/POSITION TIME  SKY/WX   TEMP    WIND        PRES    VSBY  WAVE   SWELL
                                AIR SEA DIR/SP/G                  HT/PER HT/PER
                 (UTC)          (F)     (DEG/KT/KT) (MB)    (MI)  (FT/S) (FT/S)
PORT ARANSAS     0200            84 85  140/ 16/ 17 1012.2R
BUOY 90 E PORT A 0200            84 85  120/ 10/ 14 1012.9S         2/ 6   2/ 6
BUOY 45 SE BAFFI 0200            84 85  150/ 12/ 14 1011.3R         3/ 6   2/ 6
BUOY 200 E PT IS 0200            84 86  100/  4/  4 1013.2R         1/ 6   2/ 6
BUOY 15 E GALVES 0200            81 84  140/  8/ 10 1012.2F         2/ 5   2/ 5
$$


USA.gov is the U.S. government's official web portal to all federal, state and local government web resources and services.